Regional Weather Roundup
Issued by NWS Little Rock, AR

Home | Current Version | Previous Version | Graphics & Text | Print | Product List | Glossary On
Versions: 1 2 3 4 5 6 7 8 9 10 11 12 13 14 15 16 17 18 19 20 21 22 23 24 25 26 27 28 29 30 31 32 33 34 35 36 37 38 39 40 41 42 43 44 45 46 47 48 49 50
000
ASUS44 KLZK 011505
RWRLZK

WEATHER ROUNDUP FOR ARKANSAS
NATIONAL WEATHER SERVICE LITTLE ROCK AR
1000 AM CDT MON JUN 01 2015

NOTE: "FAIR" INDICATES FEW OR NO CLOUDS BELOW 12,000 FEET WITH NO
SIGNIFICANT WEATHER AND/OR OBSTRUCTIONS TO VISIBILITY.

ARZ001-003-010-029-011600-
NORTHWEST ARKANSAS

CITY           SKY/WX    TMP DP  RH WIND       PRES   REMARKS
FAYETTEVILLE   CLOUDY    65  61  87 VRB5      30.13F
FORT SMITH     PTSUNNY   71  61  70 CALM      30.10F
HARRISON       CLOUDY    60  57  89 CALM      30.15S
BENTONVILLE    PTSUNNY   64  55  72 NE6       30.15S
ROGERS         CLOUDY    64  58  80 NE6       30.15F
SILOAM SPGS    PTSUNNY   66  55  68 E3        30.15S
HIGHFILL       PTSUNNY   67  60  78 NE8       30.14S
SPRINGDALE     CLOUDY    64  61  88 NE8       30.16S
$$

ARZ004-005-016-011600-
NORTH CENTRAL ARKANSAS

CITY           SKY/WX    TMP DP  RH WIND       PRES   REMARKS
BATESVILLE     CLOUDY    63  55  77 NE3       30.15R
FLIPPIN        CLOUDY    63  57  82 NE3       30.14R
MTN HOME       CLOUDY    62  57  83 N3        30.14S
$$

ARZ040-041-011600-
WEST CENTRAL ARKANSAS

CITY           SKY/WX    TMP DP  RH WIND       PRES   REMARKS
MENA           MOSUNNY   72  63  73 CALM      30.12F
MOUNT IDA      PTSUNNY   72  63  73 VRB3      30.10S
$$

ARZ009-017-025-026-028-011600-
NORTHEAST ARKANSAS

CITY           SKY/WX    TMP DP  RH WIND       PRES   REMARKS
CORNING          N/A     63  57  82 N7        30.14S
JONESBORO      CLOUDY    62  57  83 NE7       30.13S
NEWPORT        CLOUDY    63  58  83 N10       30.15R
WALNUT RIDGE   SUNNY     61  54  77 N7        30.14S
BLYTHEVILLE    CLOUDY    64  59  83 NE12      30.12S
NW BLYTHEVILLE CLOUDY    64  57  77 NE10      30.12S
$$

ARZ022-023-033-042-044-011600-
CENTRAL ARKANSAS

CITY           SKY/WX    TMP DP  RH WIND       PRES   REMARKS
LITTLE ROCK    CLOUDY    66  58  75 VRB3      30.13R
N LITTLE ROCK  CLOUDY    66  62  87 NE9       30.13R
JACKSONVILLE   CLOUDY    65  59  80 NE7       30.12R
SEARCY         CLOUDY    66  59  78 N6        30.14S
HOT SPRINGS    CLOUDY    68  63  84 E3        30.12S
RUSSELLVILLE   CLOUDY    66  64  93 E5        30.13R FOG
CLINTON        CLOUDY    64  61  88 E5        30.15S
$$

ARZ036-011600-
EAST ARKANSAS

CITY           SKY/WX    TMP DP  RH WIND       PRES   REMARKS
WEST MEMPHIS   CLOUDY    64  61  90 N9        30.10S
$$

ARZ050-053-066-070-073-011600-
SOUTHWEST ARKANSAS

CITY           SKY/WX    TMP DP  RH WIND       PRES   REMARKS
ARKADELPHIA    PTSUNNY   69  66  90 VRB5      30.13R
CAMDEN         CLOUDY    70  63  78 N7        30.11R
TEXARKANA      CLOUDY    69  65  86 NE6       30.10S
EL DORADO      CLOUDY    68  65  90 N5        30.11R
DE QUEEN       MOSUNNY   72  65  78 E6        30.08F
$$

ARZ056-057-069-011600-
SOUTHEAST ARKANSAS

CITY           SKY/WX    TMP DP  RH WIND       PRES   REMARKS
PINE BLUFF     CLOUDY    67  60  78 NE9       30.12R
STUTTGART      CLOUDY    64  57  77 N8        30.12S
MONTICELLO     CLOUDY    67  64  90 N5        30.10R

$$





USA.gov is the U.S. government's official web portal to all federal, state and local government web resources and services.